Chapel Hill, NC

8:21 AM EST on December 12, 2017 (GMT -0500)
Williams

Weather History for KIGX - September, 2013

Change the Weather History Date:

Thursday, September 19, 2013

  Actual Average Record
Temperature  
Mean Temperature 64 °F -  
Max Temperature 75 °F 81 °F 95 °F (1954)
Min Temperature 53 °F 59 °F 37 °F (1984)
Degree Days  
Heating Degree Days 1    
Growing Degree Days 14 (Base 50)    
Moisture  
Dew Point 55 °F    
Average Humidity 72    
Maximum Humidity 86    
Minimum Humidity 51    
Precipitation  
Precipitation 0.00 in - - ()
Sea Level Pressure  
Sea Level Pressure 30.15 in    
Wind  
Wind Speed 1 mph (NW)    
Max Wind Speed 5 mph    
Max Gust Speed -    
Visibility 10 miles    
Events      
Averages and records for this station are not official NWS values.
T = Trace of Precipitation, MM = Missing Value Source: NWS Daily Summary

Daily Weather History Graph

Daily Weather History Graph

Search for Another Location

Airport or City:

Trip Planner

Search our weather history database for the weather conditions in past years. The results will help you decide how hot, cold, wet, or windy it might be!

Date:

Astronomy

Sep. 19, 2013 Rise Set
Actual Time 7:02 AM EDT 7:17 PM EDT
Civil Twilight 6:36 AM EDT 7:42 PM EDT
Nautical Twilight 6:06 AM EDT 8:12 PM EDT
Astronomical Twilight 5:36 AM EDT 8:43 PM EDT
Moon 7:17 PM EDT (9/19) 7:07 AM EDT (9/19)
Length of Visible Light 13h 06m
Length of Day
12h 15m
Full, 100% of the Moon is Illuminated
Sep 19
Full
Sep 26
Last Quarter
Oct 4
New
Oct 11
First Quarter
Oct 18
Full

Hourly Weather History & Observations

Time (EDT) Temp. Dew Point Humidity Pressure Visibility Wind Dir Wind Speed Gust Speed Precip Events Conditions
12:56 AM 53.1 °F 48.9 °F 86% 30.20 in 10.0 mi Calm Calm - N/A   Clear
1:56 AM 55.0 °F 48.9 °F 80% 30.19 in 10.0 mi Calm Calm - N/A   Clear
2:56 AM 54.0 °F 50.0 °F 86% 30.18 in 10.0 mi Calm Calm - N/A   Clear
3:56 AM 55.0 °F 50.0 °F 83% 30.17 in 10.0 mi East 4.6 mph - N/A   Partly Cloudy
4:56 AM 55.9 °F 51.1 °F 84% 30.18 in 10.0 mi Calm Calm - N/A   Overcast
5:56 AM 57.0 °F 52.0 °F 83% 30.18 in 10.0 mi West 4.6 mph - N/A   Overcast
6:56 AM 57.9 °F 53.1 °F 84% 30.19 in 10.0 mi Calm Calm - N/A   Overcast
7:56 AM 59.0 °F 54.0 °F 83% 30.19 in 10.0 mi Calm Calm - N/A   Overcast
8:56 AM 60.1 °F 53.1 °F 78% 30.19 in 10.0 mi Calm Calm - N/A   Overcast
9:56 AM 63.0 °F 54.0 °F 72% 30.20 in 10.0 mi Calm Calm - N/A   Overcast
10:56 AM 64.9 °F 54.0 °F 68% 30.21 in 10.0 mi Calm Calm - N/A   Overcast
11:56 AM 69.1 °F 54.0 °F 58% 30.20 in 10.0 mi Calm Calm - N/A   Mostly Cloudy
12:56 PM 73.0 °F 54.0 °F 51% 30.18 in 10.0 mi WNW 4.6 mph - N/A   Mostly Cloudy
1:56 PM 73.9 °F 55.0 °F 52% 30.16 in 10.0 mi Calm Calm - N/A   Overcast
2:56 PM 73.9 °F 55.0 °F 52% 30.13 in 10.0 mi Calm Calm - N/A   Overcast
3:56 PM 73.9 °F 55.9 °F 53% 30.12 in 10.0 mi Calm Calm - N/A   Overcast
4:56 PM 75.0 °F 57.9 °F 55% 30.11 in 10.0 mi NW 3.5 mph - N/A   Mostly Cloudy
5:56 PM 73.9 °F 59.0 °F 59% 30.11 in 10.0 mi Calm Calm - N/A   Overcast
6:56 PM 71.1 °F 60.1 °F 68% 30.11 in 10.0 mi Calm Calm - N/A   Overcast
7:56 PM 69.1 °F 61.0 °F 75% 30.11 in 10.0 mi Calm Calm - N/A   Overcast
8:56 PM 66.0 °F 60.1 °F 81% 30.11 in 10.0 mi Calm Calm - N/A   Clear
9:56 PM 64.9 °F 60.1 °F 84% 30.11 in 10.0 mi Calm Calm - N/A   Mostly Cloudy
10:56 PM 66.0 °F 60.1 °F 81% 30.10 in 10.0 mi Calm Calm - N/A   Overcast
11:56 PM 64.9 °F 60.1 °F 84% 30.09 in 10.0 mi Calm Calm - N/A   Mostly Cloudy